Location: Villingen
(48.0639°N, 8.4609°E)
Time: 03:45:51
(UTC+02:00)

ISS - Pass Details

Date: 08 January 2018
Orbit: 401 x 409 km, 51.6° (Epoch: 20 August)

Event Time Altitude Azimuth Distance (km) Brightness Sun altitude
Exits shadow 05:14:37 15° 66° (ENE) 1,229 -0.7 -29.2°
Drops below altitude 10° 05:15:21 10° 70° (ENE) 1,511 -0.1 -29.1°
Sets 05:17:32 0° 77° (ENE) 2,380 1.2 -28.8°
